User: anonymous
Location: Pulvis Stellarum Observatory
(41.6962°N, 71.4263°W)
Time: 03:57:21
(UTC-04:00)
Language:

Cosmos 1758 - Orbit

View from above orbital plane
View from above orbital plane
View from above satellite
View from above satellite

Ground track
Ground track

The orbit data is extracted from the following two-line orbital elements,

1 16791U 86046A   14261.49164123  .00001662  00000-0  12681-3 0  1271
2 16791 082.4687 287.5054 0016409 252.7553 107.1876 15.01312996535023
Epoch (UTC): 18 September 2014 11:47:57
Eccentricity: 0.0016409
inclination: 82.4687°
perigee height: 551 km
apogee height: 574 km
right ascension of ascending node: 287.5054°
argument of perigee: 252.7553°
revolutions per day: 15.01312996
mean anomaly at epoch: 107.1876°
orbit number at epoch: 53502

The dashed part of the orbit path shows where the satellite is in the earth's shadow,  

DLR